Temp
10 10 10 10 10 10 10 11 11 11 12 12 12 12 12 11 10 10 10 9 10 9
9 9 9 9 9 9 9 9 10 10 10 10 11 11 11 11 10 10 8 8 8 8
8 7 7 8 8 8 8 8 9 9 9 10 10 10 10 10 10 9 8 7 7 7
7 7 7 7 7 7 8 8 8 8 9 9 9 9 9 9 9 9 7 6 7 7
6 6 6 7 7 7 7 7 7 7 7 7 8 8 8 8 7 5 5 6 6 6
5 6 6 6 6 6 6 6 6 6 6 5 5 5 6 4 4 5 5 5 5 4
4 5 5 5 5 5 5 5 5 5 4 3 2 3 3 3 3 3 3 3 3 3
3 4 4 4 4 5 5 5 5 4 4 4 3 3 2 3 3 3 3 3 3 3
2 2 3 3 4 4 4 4 4 3 3 3 3 2 2 2 2 3 2 1 1 1
2 1 2 3 3 3 3 3 3 2 2 2 2 1 1 1 1 1 1 1 0 -0
1 2 2 2 2 2 2 2 1 1 1 2 1 1 1 0 -0 0 0 -0 -0 -1
1 1 2 2 2 1 1 1 1 1 1 1 1 0 -0 -0 -0 -0 -1 -1 -1 -2
1 1 1 1 1 0 0 1 1 0 0 1 0 -0 -0 -0 -1 -1 -1 -2 -2 -3
1 1 1 0 0 0 1 0 0 -0 -0 -0 -1 -1 -1 -1 -2 -2 -2 -3 -3 -4
Height
1499 1499 1499 1498 1498 1498 1498 1498 1497 1497 1497 1498 1499 1499 1498 1499 1499 1499 1499 1498 1497 1496
1496 1496 1496 1495 1494 1494 1494 1493 1492 1492 1493 1492 1493 1494 1494 1494 1493 1492 1492 1491 1491 1490
1494 1493 1492 1491 1491 1491 1490 1489 1487 1487 1487 1487 1487 1487 1488 1488 1487 1487 1485 1485 1485 1485
1491 1489 1489 1488 1488 1487 1487 1486 1485 1483 1483 1483 1482 1482 1483 1482 1482 1481 1480 1479 1479 1478
1487 1487 1486 1486 1485 1485 1484 1483 1482 1480 1479 1478 1477 1477 1476 1476 1476 1475 1475 1474 1474 1474
1484 1483 1483 1483 1483 1482 1481 1479 1478 1476 1474 1472 1471 1471 1471 1471 1470 1471 1471 1470 1470 1470
1481 1481 1481 1481 1480 1479 1478 1476 1474 1474 1473 1471 1469 1469 1468 1468 1468 1468 1467 1467 1467 1466
1480 1479 1479 1478 1477 1476 1474 1473 1473 1473 1472 1471 1469 1468 1466 1467 1466 1465 1464 1464 1464 1463
1479 1478 1477 1476 1474 1473 1472 1471 1471 1471 1470 1469 1468 1467 1468 1467 1466 1464 1463 1463 1462 1461
1477 1476 1475 1473 1472 1472 1471 1471 1470 1471 1471 1470 1470 1470 1469 1468 1467 1466 1465 1464 1463 1462
1475 1473 1473 1472 1471 1472 1472 1472 1472 1472 1472 1471 1471 1471 1470 1470 1469 1468 1467 1465 1464 1463
1473 1473 1472 1472 1473 1473 1474 1474 1474 1474 1474 1473 1472 1473 1472 1471 1471 1469 1467 1466 1465 1464
1472 1472 1472 1473 1474 1474 1475 1476 1475 1476 1475 1473 1473 1474 1473 1472 1471 1469 1467 1466 1464 1463
1472 1473 1474 1475 1476 1476 1476 1476 1476 1476 1475 1474 1474 1474 1472 1471 1470 1468 1466 1464 1463 1461
Wind_Speed
18 18 19 19 20 20 19 19 19 20 25 24 25 25 22 20 19 22 24 25 28 28
15 16 16 17 19 20 21 21 21 21 21 22 25 26 27 26 22 26 21 21 23 26
13 13 14 15 16 16 15 15 16 17 18 19 20 22 22 24 24 28 27 19 20 21
13 13 13 13 14 14 14 15 15 16 16 17 17 18 20 23 26 26 23 19 18 16
12 12 11 11 12 12 13 14 15 16 17 17 18 19 20 20 20 19 15 16 15 14
13 12 12 12 12 12 12 12 11 12 13 13 13 14 15 13 13 13 14 14 15 17
11 11 11 11 10 10 9 9 9 8 9 8 8 8 9 8 9 10 11 12 15 15
7 7 8 8 8 8 8 7 6 5 2 5 5 6 5 4 4 5 6 6 7 8
8 8 7 6 6 5 4 3 1 1 0 3 5 7 7 7 6 5 5 4 5 5
8 7 6 2 2 2 3 4 5 6 6 7 8 8 9 9 8 7 7 6 5 5
8 6 4 4 6 8 8 9 9 9 8 8 9 9 8 8 7 7 6 6 6 5
7 7 7 9 11 12 12 11 10 10 8 9 9 9 9 9 8 7 6 5 5 5
9 9 12 13 12 11 10 8 8 8 8 8 7 7 7 8 9 9 9 9 9 10
11 12 12 11 10 9 8 7 6 5 5 5 6 7 8 9 10 10 10 10 10 10
Wind_Direction
272 271 272 273 274 276 278 276 272 267 261 262 264 267 269 270 272 274 277 281 277 284
273 273 272 272 274 276 276 276 275 273 270 268 264 263 267 272 269 279 279 279 280 284
273 272 272 274 275 276 277 277 279 279 276 274 270 267 267 267 264 267 277 276 277 278
270 271 271 272 275 278 282 284 282 281 279 276 273 271 267 265 267 272 274 273 271 276
265 267 271 274 278 281 283 284 284 285 286 282 279 275 269 268 268 272 270 271 269 271
263 266 269 271 271 273 281 287 288 297 299 291 285 281 279 275 274 267 270 273 276 278
268 268 268 267 264 268 281 291 294 301 329 337 341 319 293 287 283 279 282 288 290 292
269 272 270 265 261 266 273 284 284 277 282 344 336 326 330 299 296 289 293 297 303 309
281 286 279 268 267 261 269 281 272 265 206 59 56 54 65 61 53 53 55 54 43 34
260 251 242 243 238 158 127 103 97 94 84 79 73 71 67 65 56 54 54 49 42 31
227 226 190 155 131 118 107 104 101 98 88 84 82 68 62 65 48 35 25 18 8 352
198 175 150 134 126 115 110 107 104 99 90 75 66 58 45 37 27 20 12 1 347 334
163 149 137 134 128 118 113 110 102 95 81 67 47 32 17 3 356 348 337 331 326 323
145 141 140 138 133 124 120 110 100 83 60 41 21 3 353 350 343 337 331 328 324 321